GFSGBSN_con_lsi_336.txt.gz
Lid_Strength_Index
2 2 1 1 2 2 2 2 2 2 3 3 3 3 3 3 3 2 2 2 2 2 2 2 1 1 2 4 5 -0 -1 -0 -0 1 2 3 4 4 6 6 5 6 5 5 5 5 5
1 1 1 2 2 2 2 2 2 2 2 3 3 3 3 3 3 2 2 2 2 2 2 2 1 0 2 7 0 -1 -0 0 1 1 2 2 3 3 5 5 5 4 5 5 5 5 5
1 2 2 2 2 2 2 2 2 3 3 3 3 3 3 3 2 2 2 2 2 2 2 1 1 0 2 4 -0 -0 -0 1 0 1 3 2 2 3 4 5 4 5 7 8 5 5 7
2 2 2 2 2 2 3 2 2 3 3 3 3 3 3 3 3 3 3 3 2 2 1 1 0 1 3 0 -1 0 0 1 0 0 1 1 1 3 4 3 5 8 8 10 6 6 6
2 2 2 2 2 2 2 2 2 3 3 3 3 3 3 3 3 3 3 3 2 1 0 -0 1 2 4 1 2 0 0 2 1 1 1 1 2 4 4 6 9 9 13 11 8 5 6
2 2 2 2 2 2 2 2 3 3 3 3 3 3 3 3 3 3 3 3 1 0 0 -0 1 3 2 3 2 1 0 1 2 2 3 3 4 5 5 7 13 11 12 11 8 6 5
2 2 2 2 2 2 2 2 2 3 3 3 3 3 3 3 3 4 3 2 3 3 2 4 3 3 3 2 1 2 1 2 2 3 5 4 6 7 6 6 6 7 7 8 8 6 6
2 2 2 2 2 2 2 3 3 3 3 3 3 4 3 3 4 4 3 2 2 1 4 2 3 3 2 1 4 2 1 4 4 6 5 6 7 5 5 5 6 7 7 8 8 7 7
2 2 2 2 2 2 3 3 3 3 3 3 4 4 4 4 4 4 1 1 -0 0 4 4 3 3 3 2 4 4 2 3 5 6 6 7 6 5 5 6 7 7 7 7 9 7 7
2 2 2 2 2 3 3 3 3 3 3 4 4 4 4 4 5 1 2 0 -0 0 6 6 5 3 3 3 5 2 2 3 4 6 6 6 5 6 6 7 6 8 6 6 7 8 10
2 2 2 2 3 3 3 3 3 3 3 4 4 4 4 6 3 2 1 -0 0 2 11 5 4 2 3 4 4 4 2 3 5 6 5 7 6 6 7 7 6 7 5 6 7 8 8
2 2 2 2 3 3 3 3 3 3 4 4 4 5 5 3 2 1 -0 0 2 8 11 7 5 5 5 4 4 3 4 3 3 5 5 6 4 5 6 5 5 5 6 6 7 8 10
2 2 2 2 3 3 4 3 3 4 4 4 5 6 5 1 2 -0 -0 2 8 10 6 7 6 5 5 6 5 5 5 6 7 8 8 6 6 5 5 6 5 6 7 10 11 11 11
2 2 2 3 3 4 4 3 4 4 4 5 6 7 4 2 -1 -0 1 5 11 7 7 5 5 6 7 6 6 6 6 7 5 6 7 9 10 6 5 6 7 7 7 10 13 13 11
2 2 2 3 3 4 4 4 4 4 4 5 7 1 1 -0 -0 -0 3 9 8 7 6 6 6 7 7 6 6 6 6 7 6 5 8 8 9 5 5 5 5 7 8 7 9 9 10
2 2 2 3 3 4 4 4 4 4 5 5 1 1 1 -0 -1 1 5 9 6 5 5 5 7 7 8 7 7 7 7 6 6 5 5 6 9 6 6 5 5 6 5 9 9 12 13
2 2 3 3 3 4 4 4 4 5 5 5 1 3 1 -0 0 3 7 6 5 4 4 5 6 7 7 7 7 7 7 6 5 5 5 5 7 7 6 7 7 7 8 7 8 9 11
2 2 3 3 4 4 4 4 5 5 6 2 2 5 0 -0 4 4 6 5 8 4 4 5 5 5 6 6 7 7 7 6 5 4 6 5 7 9 8 5 5 6 7 7 10 10 9
3 3 3 4 4 4 4 4 5 5 5 3 4 3 0 1 6 6 5 5 5 5 5 5 5 5 5 6 7 6 6 5 4 5 6 5 7 10 9 7 6 7 6 6 7 7 9
4 4 4 4 4 4 4 5 5 5 5 3 4 5 3 2 3 5 5 5 6 4 5 4 5 4 5 6 5 7 6 5 4 5 2 4 7 8 10 9 7 8 7 7 7 9 9
4 4 4 4 4 4 4 5 5 5 5 2 3 4 3 6 5 5 5 5 6 6 4 4 5 5 6 7 7 7 6 5 5 6 4 5 8 7 7 7 7 7 7 7 8 7 9
4 4 4 4 4 4 4 5 5 5 6 2 4 5 4 5 4 5 6 5 6 5 5 6 6 5 5 6 6 7 6 6 6 5 5 5 8 7 8 7 7 8 7 7 7 7 7
5 5 5 5 5 4 4 5 5 5 5 2 2 2 4 6 5 5 5 5 5 5 4 4 5 5 6 5 4 4 4 4 4 5 6 6 7 8 10 7 8 9 7 7 7 6 7
5 5 5 5 5 5 5 5 5 5 5 2 1 2 5 7 5 5 5 5 5 5 5 4 4 5 4 2 3 3 4 4 4 5 4 6 7 7 9 8 13 7 5 6 7 6 6
6 6 6 6 5 5 5 5 5 4 5 4 1 2 4 7 5 5 5 5 4 4 5 4 4 3 2 4 6 7 7 6 6 5 5 5 6 8 10 10 8 7 6 6 7 7 5
6 6 6 6 6 6 6 6 5 4 4 4 2 -0 3 6 6 4 5 5 6 6 5 4 3 2 3 5 7 9 10 8 9 7 5 5 5 7 9 11 12 7 5 4 5 9 5
7 7 7 7 7 6 7 6 6 5 4 4 3 1 2 6 4 4 5 6 4 5 6 4 4 4 3 6 8 9 9 7 9 9 8 8 8 9 9 10 8 5 5 4 10 9 5
7 7 7 7 8 7 7 7 7 6 5 5 4 2 2 4 4 3 3 4 4 4 7 5 5 5 5 8 8 8 8 7 8 7 8 9 9 10 9 11 12 5 5 8 6 4 4
8 8 8 8 8 8 8 8 7 7 6 6 6 2 0 3 4 1 1 1 2 2 4 4 5 5 5 6 6 6 8 7 7 10 5 9 7 9 8 9 5 4 4 3 3 4 4

GFSGBSN_con_lsi_339.txt.gz
Lid_Strength_Index
2 2 2 2 2 2 3 3 3 3 3 3 3 3 3 3 3 2 2 2 2 2 2 1 1 1 2 6 7 1 -1 -1 0 1 3 4 7 7 9 8 7 9 8 6 5 5 5
2 2 2 2 2 3 3 3 3 3 3 3 3 3 3 3 3 2 2 2 2 2 2 1 1 1 4 9 1 0 0 1 1 2 3 3 5 4 6 6 7 6 7 7 6 6 5
2 2 2 2 3 3 3 3 3 3 3 3 3 3 3 3 3 2 2 2 2 2 2 1 1 1 4 5 1 0 1 1 1 2 4 2 3 4 5 6 4 6 9 7 7 6 6
2 2 2 2 3 3 3 3 3 2 3 3 3 3 3 3 3 2 2 2 2 2 2 1 0 2 6 1 2 1 1 2 1 1 2 2 2 4 6 5 6 8 8 11 7 7 6
2 2 2 2 3 3 3 3 3 3 3 3 3 3 3 3 3 3 3 3 2 1 0 0 3 4 6 1 4 3 2 3 2 2 2 1 3 6 5 8 9 9 12 11 10 6 7
2 2 2 2 2 3 3 3 3 3 3 3 3 3 4 3 3 3 4 4 1 2 0 -0 1 6 4 5 5 4 3 2 3 4 4 4 6 8 7 9 13 11 12 11 11 8 8
2 2 2 2 3 2 2 3 3 3 3 3 3 4 4 3 3 4 5 4 5 6 4 6 6 4 4 4 3 4 2 3 4 5 8 7 9 10 9 9 8 8 10 11 9 7 8
2 2 2 3 3 2 3 3 3 3 3 3 4 4 4 4 4 4 5 5 3 4 6 3 3 3 3 4 6 4 3 6 6 8 7 8 10 7 6 7 9 10 10 9 9 7 8
2 2 3 3 3 3 3 3 3 3 3 4 4 4 4 4 4 6 4 3 1 2 7 5 4 6 6 5 6 6 4 5 6 8 8 10 8 6 8 9 9 10 12 10 9 8 7
2 2 3 3 3 3 3 3 3 3 3 4 4 4 4 4 6 4 4 2 2 3 9 8 7 6 5 5 7 4 3 5 7 8 8 9 7 7 9 9 9 13 8 8 8 11 12
2 2 3 3 3 3 3 4 4 4 4 4 4 4 5 6 6 5 3 3 3 5 15 7 7 4 5 7 6 6 4 6 8 7 9 9 8 9 9 8 8 10 7 8 8 10 13
2 2 2 2 3 3 3 4 4 4 4 4 4 4 5 5 5 5 4 3 4 10 13 9 7 8 8 7 7 5 5 6 6 8 8 9 7 9 9 7 8 7 9 9 10 12 15
2 2 2 2 3 3 4 4 4 4 4 4 5 5 6 3 3 3 3 4 10 13 7 9 9 8 8 8 8 7 8 10 11 13 12 9 9 8 8 11 8 9 11 15 15 15 14
2 2 2 3 3 3 4 4 4 4 4 5 6 7 5 3 3 4 4 7 13 9 9 8 8 8 8 8 9 8 9 11 9 10 11 11 13 10 8 10 11 10 11 15 17 16 14
2 2 2 3 3 3 4 4 4 5 5 5 6 3 3 2 3 3 6 11 11 8 7 7 8 9 10 9 9 9 10 10 9 9 12 12 11 8 7 8 9 11 13 11 14 12 14
3 3 2 3 3 4 4 4 4 5 5 5 4 2 2 1 1 3 7 10 8 7 6 7 10 8 9 10 10 10 9 8 8 7 9 10 13 9 9 8 8 10 6 13 13 16 16
3 3 3 3 3 4 4 4 5 5 5 5 3 5 2 1 2 5 9 8 6 6 5 7 8 8 8 9 9 9 8 8 7 7 7 9 11 10 9 9 10 11 12 12 13 13 16
3 3 3 3 4 4 4 4 5 5 6 3 3 7 2 2 6 6 8 6 7 6 5 6 6 8 8 8 9 9 9 8 6 7 9 8 11 13 11 9 7 10 12 11 14 15 14
3 4 4 4 4 4 4 5 5 6 6 6 5 5 2 3 8 8 7 6 6 6 6 6 7 6 6 8 9 8 7 6 6 7 9 9 11 15 13 11 9 11 10 9 11 12 14
4 4 4 4 4 4 4 5 5 5 6 5 5 8 4 4 5 6 7 7 7 5 6 6 6 6 7 8 8 9 8 6 6 7 2 6 11 12 15 13 11 11 10 10 12 14 14
4 4 4 4 4 4 4 5 5 6 6 5 4 6 5 8 7 6 6 6 7 7 6 5 6 6 7 10 9 9 7 7 6 6 7 8 12 11 9 9 9 9 9 9 12 11 13
5 4 4 4 4 4 4 5 5 5 6 3 6 6 5 6 6 7 7 7 7 6 6 7 6 6 6 9 8 9 8 8 9 7 9 8 11 10 11 8 9 10 9 9 9 9 10
5 5 5 5 5 5 5 5 5 5 5 3 2 2 5 7 6 7 7 6 6 5 5 5 5 6 7 6 5 6 7 7 9 10 9 9 10 11 13 9 9 12 9 9 10 9 10
6 5 5 6 5 5 5 5 5 5 5 5 3 3 6 9 7 7 6 6 6 6 6 5 5 6 5 4 5 5 6 7 7 7 7 9 10 11 13 12 16 10 7 7 9 8 8
6 6 6 6 6 6 5 5 5 5 4 6 4 3 6 9 7 6 6 6 6 5 6 5 5 4 4 5 8 10 9 9 7 7 8 8 10 12 13 14 11 9 8 8 9 10 7
6 6 6 6 6 6 6 6 6 5 5 5 5 3 4 7 8 5 7 6 7 7 7 5 4 4 5 7 9 13 13 11 11 9 8 9 9 10 12 15 16 10 7 6 7 12 6
7 7 7 7 7 7 6 6 6 6 6 6 6 5 3 7 5 5 7 7 5 6 8 6 5 5 5 8 11 12 11 8 11 12 12 11 11 12 12 14 11 8 6 6 13 12 6
7 8 8 8 8 8 7 7 7 6 6 7 7 6 6 6 5 4 3 5 6 6 8 6 7 7 7 10 10 10 11 9 10 9 10 12 13 13 12 14 15 6 7 11 8 7 6
7 8 8 8 8 8 8 8 7 7 7 7 8 6 5 6 4 2 2 2 3 4 5 5 7 7 7 9 9 9 10 10 10 13 8 12 9 11 11 11 7 7 7 6 6 6 6

GFSGBSN_con_lsi_342.txt.gz
Lid_Strength_Index
2 2 2 2 3 3 3 3 3 3 3 3 3 3 3 3 3 3 2 2 2 2 2 1 1 1 3 8 8 0 -1 -1 0 1 3 4 6 7 9 8 7 9 8 7 6 6 6
2 2 2 2 3 3 3 3 2 3 3 3 3 3 3 3 3 3 3 2 2 2 2 1 1 0 4 10 3 -0 0 1 1 2 3 3 5 5 6 7 8 7 7 6 6 6 6
2 2 2 3 3 3 3 3 3 3 3 3 3 3 3 3 3 3 2 2 2 2 2 1 1 1 4 7 0 0 0 1 1 2 4 3 3 6 5 7 5 6 8 7 7 7 7
2 2 3 3 3 3 3 3 3 3 3 3 3 3 3 3 3 3 3 3 3 2 1 1 0 3 8 2 3 1 2 2 1 1 2 2 2 5 6 5 6 8 8 12 7 7 6
2 2 3 3 3 3 3 3 3 3 3 3 3 4 4 4 4 3 3 3 2 1 1 0 4 5 8 1 4 4 1 3 2 2 3 1 4 6 7 9 10 10 12 11 10 7 7
2 2 3 3 3 3 3 3 3 3 3 3 3 4 4 4 4 4 5 4 2 2 1 0 1 7 5 6 5 5 4 4 5 4 5 6 7 8 10 11 13 13 12 11 11 8 8
2 3 3 3 3 3 3 3 3 3 3 3 4 4 4 4 4 4 6 5 6 6 6 8 8 6 4 4 5 5 6 6 5 7 9 8 10 11 9 8 8 9 11 11 9 7 9
2 2 2 3 3 3 3 3 3 3 3 3 4 4 4 5 4 5 7 7 4 5 8 5 5 4 4 6 7 6 3 6 7 9 9 10 11 8 7 7 9 9 11 11 9 7 9
2 2 3 3 3 3 3 3 3 3 3 3 4 4 4 4 5 7 6 5 4 4 9 6 4 5 5 6 7 6 4 6 7 9 9 11 8 7 8 10 10 13 12 12 10 10 9
2 2 3 3 3 3 3 3 3 3 4 4 4 4 4 5 6 6 6 5 5 5 11 8 9 6 7 6 8 5 3 6 8 8 9 10 8 8 10 11 11 12 9 9 9 12 15
2 2 2 3 3 3 3 3 4 4 4 4 4 4 5 6 8 8 5 7 5 6 15 7 9 5 7 8 8 7 4 7 8 8 10 11 10 10 10 9 9 11 9 10 9 12 14
2 3 2 3 3 3 3 4 4 4 4 4 4 4 5 7 9 7 6 6 6 11 14 10 8 9 10 10 8 7 7 8 8 10 11 11 9 9 10 9 9 9 10 11 13 14 16
3 3 3 3 3 3 4 4 4 4 4 5 5 6 6 5 6 6 7 6 11 14 8 10 11 11 11 12 10 9 10 11 12 13 15 11 10 10 9 12 9 10 14 16 16 16 16
3 3 3 3 3 3 4 4 4 5 5 5 6 7 7 5 7 7 7 8 14 10 11 10 10 11 12 11 11 10 11 12 12 13 14 14 13 12 9 11 11 11 13 16 18 17 16
3 3 3 3 3 3 4 4 5 5 5 5 6 6 6 6 6 6 8 12 12 11 9 9 9 11 12 10 10 11 12 13 12 11 13 13 13 8 8 9 10 12 13 12 15 16 15
3 3 3 3 3 3 4 4 5 5 5 6 7 5 6 4 5 6 9 12 10 7 8 8 12 10 11 11 12 13 12 9 9 9 10 11 13 11 8 9 9 11 11 14 15 17 18
3 3 3 3 3 4 4 4 5 5 6 6 5 6 5 4 5 8 11 11 8 7 8 9 10 11 11 11 11 11 11 9 8 9 9 9 12 11 11 12 12 11 13 14 14 15 16
3 3 3 3 3 4 4 4 5 6 6 7 7 11 5 5 9 11 11 9 7 7 8 8 8 9 10 10 11 11 10 9 8 9 10 10 13 14 13 11 9 11 13 15 15 15 16
4 3 3 4 4 4 4 5 5 6 6 8 8 8 4 6 11 11 10 9 8 8 9 8 9 8 9 10 11 10 8 7 7 8 10 8 13 16 14 13 10 11 11 12 14 15 16
4 4 4 4 4 4 4 5 5 6 6 8 7 9 7 7 9 8 10 9 8 6 7 8 9 8 9 10 10 10 9 8 7 8 3 8 14 14 16 14 13 12 11 12 14 15 16
5 5 4 4 4 4 4 5 5 6 6 7 6 8 8 10 9 9 10 9 9 9 8 8 9 8 10 10 10 10 9 9 8 6 8 10 13 11 12 11 11 11 11 10 13 14 14
5 5 5 5 4 4 4 5 5 5 6 5 7 8 7 8 9 10 11 10 8 7 8 9 9 7 8 10 10 11 11 12 11 10 11 11 13 10 12 10 10 11 10 10 10 10 12
6 5 5 5 5 5 5 5 5 5 6 8 6 5 7 8 8 9 10 8 7 7 7 7 7 8 9 8 7 8 9 9 10 11 11 12 13 13 14 11 11 12 11 10 10 11 10
6 6 6 6 6 6 5 5 5 5 6 8 7 6 8 10 9 8 7 7 7 7 8 6 7 9 8 7 7 7 8 9 9 9 10 11 13 13 14 13 16 11 9 8 9 9 8
6 6 6 6 6 6 6 6 5 6 5 8 8 8 7 10 8 7 7 7 7 7 8 7 6 7 7 8 10 11 11 10 9 8 9 11 13 14 14 15 12 10 9 9 10 10 8
6 6 6 6 6 6 6 6 6 5 6 8 8 7 8 9 9 6 7 7 9 9 8 7 5 6 7 9 10 13 13 12 11 10 11 12 11 12 14 15 15 11 8 7 8 13 7
7 7 7 7 7 7 7 7 6 6 6 8 9 8 9 9 7 7 8 8 6 8 9 8 7 7 8 11 12 12 13 10 12 13 13 12 13 14 14 15 12 9 7 7 13 12 7
7 7 7 7 7 7 7 7 7 7 7 8 10 9 10 10 9 7 6 7 7 7 10 8 8 8 9 11 11 11 12 11 12 11 11 12 13 13 14 15 15 7 8 10 8 8 7
7 7 7 7 7 7 7 7 7 7 7 8 12 9 9 12 9 7 6 5 4 4 7 8 8 8 7 10 10 10 11 11 12 13 9 12 11 11 11 11 8 8 8 7 8 8 8

GFSGBSN_con_lsi_345.txt.gz
Lid_Strength_Index
2 2 2 3 3 3 3 3 3 3 3 3 3 3 3 3 3 3 3 3 2 2 2 1 1 0 3 9 10 0 -1 -1 0 1 3 5 6 7 9 8 8 9 8 7 6 6 6
2 2 3 3 3 3 3 3 3 3 3 3 3 3 3 3 3 3 3 3 2 2 2 1 1 0 4 12 3 -0 0 1 1 2 3 3 5 5 7 8 8 7 7 7 6 6 6
2 3 3 3 3 3 3 3 3 3 3 3 3 3 3 3 3 3 3 2 2 2 2 1 1 1 6 8 0 0 0 2 1 2 4 3 3 5 6 8 5 7 9 8 7 7 7
2 3 3 3 3 3 3 4 3 3 3 3 3 3 4 4 4 4 3 2 2 2 1 1 0 3 10 6 0 1 1 3 2 1 2 2 2 5 6 5 7 9 8 12 8 7 7
3 2 3 3 3 3 3 3 3 3 3 3 3 3 4 4 4 4 3 3 2 1 1 0 5 6 10 2 4 2 1 3 2 2 3 1 3 6 7 9 11 9 13 11 10 7 7
2 2 2 2 3 3 3 3 3 3 3 3 3 4 4 5 5 5 4 4 2 2 1 0 1 7 6 5 5 4 1 2 4 4 5 5 6 10 11 11 14 12 12 11 11 9 8
2 2 2 2 3 3 3 3 3 3 3 3 3 4 4 4 5 4 6 6 6 8 5 8 8 7 6 5 6 7 4 5 8 7 10 10 11 12 10 8 8 9 11 11 10 8 10
2 2 3 3 3 3 3 3 3 3 3 3 4 4 4 4 5 5 7 8 6 5 8 6 5 5 4 5 7 6 6 8 7 10 10 10 12 8 8 9 9 10 11 11 10 8 10
2 3 3 3 3 3 3 3 3 3 3 4 4 4 4 5 5 7 8 6 5 5 9 7 6 5 5 5 7 7 4 6 8 10 10 11 9 7 9 10 12 12 12 12 11 10 9
3 3 3 3 3 3 3 3 3 4 4 4 4 4 5 6 7 7 8 6 5 6 11 8 9 7 7 7 9 5 4 6 9 9 9 10 8 9 11 11 11 12 10 9 11 13 16
3 3 4 3 3 3 3 3 4 4 4 4 4 4 5 7 9 9 7 8 7 7 15 8 10 6 8 8 9 8 5 7 9 8 11 10 10 11 11 10 10 11 10 10 10 12 13
3 3 4 3 3 4 4 4 4 4 4 4 4 5 6 8 9 8 7 7 7 11 14 11 10 11 11 11 10 8 7 8 8 10 12 10 10 10 10 9 10 9 11 12 13 15 17
3 3 3 3 4 4 4 4 4 5 5 5 5 6 7 6 9 7 7 7 11 14 8 11 11 12 12 12 11 9 10 11 12 14 15 12 10 11 10 13 10 10 14 16 16 17 17
3 3 3 3 4 4 4 4 4 5 5 5 6 6 7 6 9 7 6 9 15 10 10 10 11 11 12 11 12 11 12 13 12 13 15 15 13 10 10 12 12 12 14 16 18 18 16
3 3 3 3 4 4 4 4 5 5 5 6 6 7 8 7 7 7 8 12 12 10 9 10 11 12 12 12 12 12 13 13 12 12 14 15 13 9 9 9 10 13 13 13 16 18 16
3 3 3 3 3 4 4 4 5 5 5 6 7 6 6 6 6 7 10 12 10 8 8 10 12 11 12 11 13 13 13 10 10 10 12 12 14 11 9 9 10 11 11 14 16 17 17
3 3 3 3 3 4 4 4 5 5 6 6 6 7 6 6 6 8 11 12 9 7 8 10 11 12 12 11 12 12 12 10 9 9 10 11 12 12 12 12 13 12 13 15 15 16 16
4 3 3 4 4 4 4 4 5 6 6 8 7 11 6 7 8 13 12 10 9 8 8 9 9 10 11 11 11 11 11 9 8 9 11 11 13 14 13 12 12 12 14 15 15 15 17
4 4 4 4 4 4 4 4 5 6 6 8 9 9 5 7 11 12 10 9 8 8 9 9 9 9 10 11 12 11 10 8 8 9 12 12 14 16 15 13 12 12 12 15 15 16 16
5 4 4 4 4 4 4 5 5 6 6 8 7 9 8 8 10 10 11 10 9 7 8 9 9 9 10 11 11 11 10 8 8 8 5 9 15 14 16 14 14 13 11 13 14 16 16
5 5 4 4 4 4 4 5 5 6 6 7 7 9 8 11 10 10 11 10 9 9 8 8 9 9 10 10 12 11 10 9 9 6 10 11 13 14 13 13 12 12 11 11 14 14 15
6 5 5 5 5 5 5 5 5 6 6 5 7 8 7 9 10 10 11 10 9 8 8 9 9 8 9 11 10 11 11 11 12 10 12 13 14 12 14 12 11 11 10 11 12 12 11
5 5 5 5 5 5 5 5 5 6 7 9 7 7 7 9 9 10 11 9 8 8 7 7 8 9 9 8 8 9 9 9 10 10 11 13 14 15 15 13 12 13 12 11 11 11 10
6 6 6 6 6 6 5 5 5 6 6 8 9 8 8 10 9 9 8 7 7 7 8 7 8 10 8 7 8 9 10 11 10 10 10 13 14 15 15 14 16 11 10 9 10 9 9
6 6 6 6 6 6 6 6 5 6 6 10 9 9 8 11 8 8 8 8 7 7 8 7 6 6 7 9 11 12 12 11 10 9 12 11 13 15 15 15 13 11 9 9 10 12 9
7 7 7 7 7 7 6 6 6 6 6 10 10 9 9 9 9 6 8 7 10 10 9 7 6 6 8 10 11 14 14 13 12 10 12 13 13 13 16 16 16 12 9 7 8 13 8
7 7 7 7 7 7 7 7 7 6 6 9 10 9 11 11 8 7 9 8 7 8 10 8 7 7 9 12 13 13 13 10 13 13 13 13 14 15 15 15 13 10 8 8 13 12 7
7 7 7 7 7 7 7 7 7 7 7 9 12 10 12 13 11 8 7 9 8 8 10 8 8 9 9 12 12 12 12 11 13 12 11 12 13 14 15 15 15 8 8 10 9 8 7
7 7 7 7 7 7 7 7 7 7 7 8 13 10 10 14 13 9 8 7 6 6 8 8 9 9 8 10 11 11 12 12 13 13 10 12 11 12 12 12 9 9 9 8 8 8 8